Lapse_Rate
6.8 6.9 7.7 7.5 7.6 7.6 7.5 7.2 7.3 8.1 7.6 7.0 7.5 7.3 8.3 7.7 7.6 7.5 7.3 6.8 6.5 6.4 6.2 6.0 6.0 6.1 5.8 5.9 5.5 5.9 6.5 6.7 6.7 6.6 6.5 6.7 6.8 6.9 7.1 7.2 6.3 5.9 5.6 4.7
6.7 7.2 7.5 7.5 7.5 7.6 7.5 7.3 7.9 7.8 7.8 7.3 7.7 7.5 8.2 8.0 7.8 7.6 7.4 6.9 6.6 6.6 6.5 6.2 6.1 6.1 5.9 5.8 6.2 6.7 6.9 6.8 6.5 6.3 6.3 6.5 6.7 7.0 7.3 7.2 6.9 6.4 5.6 5.0
6.4 7.6 7.4 7.5 7.6 7.7 7.5 7.5 8.0 7.8 7.8 7.5 7.4 7.2 8.3 8.3 8.1 7.8 7.5 7.2 6.8 6.7 6.5 6.5 6.3 6.2 5.9 5.9 6.5 6.9 6.6 6.3 5.9 5.9 6.1 6.5 6.6 7.1 7.4 7.2 7.0 7.0 6.0 5.6
6.7 7.5 7.6 7.6 7.8 8.1 7.7 8.4 8.1 8.0 7.6 7.5 7.7 5.7 7.9 8.2 8.0 7.9 7.4 7.2 6.7 6.5 6.6 6.6 6.3 6.1 6.2 6.3 6.3 6.2 6.2 6.0 5.9 6.2 6.0 6.4 6.5 6.5 6.2 6.8 6.0 6.3 5.6 4.6
7.3 7.4 7.5 7.5 8.0 8.1 8.2 8.0 8.0 7.9 7.5 7.3 7.6 6.7 7.4 7.9 8.3 8.2 7.4 6.9 6.7 6.7 7.0 6.9 6.7 6.2 6.3 6.6 6.4 6.1 6.1 6.0 5.7 5.5 5.8 6.6 6.8 6.3 6.4 6.2 6.4 5.8 5.2 4.9
7.2 7.2 7.1 7.6 7.8 8.0 7.9 7.7 7.8 7.9 7.6 6.0 7.7 7.5 7.3 8.2 8.3 7.9 7.2 6.9 7.1 7.1 7.1 6.9 6.6 6.4 6.4 6.6 6.5 6.1 5.8 5.6 5.9 5.9 6.1 6.5 6.3 6.6 6.2 6.2 6.3 5.8 5.4 5.7
7.1 7.3 7.5 7.7 7.9 8.0 7.8 7.6 7.4 6.9 6.3 6.1 7.9 7.1 8.0 8.3 7.9 7.6 7.3 6.9 7.2 7.4 7.3 6.9 6.6 6.4 6.3 6.5 6.8 5.8 5.6 5.8 5.9 6.1 6.2 6.2 6.1 5.9 6.2 6.3 6.1 5.8 6.1 6.1
6.7 7.0 7.4 7.7 8.0 7.8 7.8 7.7 7.8 7.7 6.3 6.9 7.8 7.2 8.2 8.4 8.0 7.7 7.6 7.1 7.2 7.4 7.3 7.1 6.7 6.5 5.6 5.9 6.5 5.9 5.7 5.7 5.8 5.9 6.1 6.0 6.2 5.8 5.9 5.8 6.3 5.8 5.7 5.3
7.1 7.0 7.3 7.7 8.0 8.2 7.9 7.8 8.2 8.2 7.5 6.7 7.8 8.2 8.2 8.2 8.0 7.5 7.1 7.3 7.0 7.1 7.3 7.1 6.9 6.5 6.1 6.0 5.9 6.3 5.7 5.5 5.9 6.2 6.0 5.9 5.9 6.1 6.0 5.8 6.1 6.3 5.9 4.9
7.1 7.1 7.2 7.4 7.9 8.0 8.2 8.3 8.2 8.2 7.8 7.0 6.7 7.6 8.2 8.3 8.1 7.1 7.0 6.9 6.7 6.9 7.1 7.1 7.0 6.5 6.1 5.8 6.1 6.1 6.0 5.9 5.8 5.7 5.5 5.8 5.7 5.8 5.7 5.9 6.0 5.4 5.2 4.4
7.3 7.6 7.3 7.4 7.6 8.3 8.6 8.4 8.2 8.5 8.5 7.4 6.8 7.8 8.6 8.4 8.4 7.2 7.0 6.9 6.8 6.7 6.7 7.1 7.1 6.8 6.1 5.6 6.1 6.3 6.3 6.1 5.8 5.7 5.5 5.6 5.7 5.4 5.3 5.4 5.6 5.3 5.0 4.4
7.1 7.3 7.2 7.5 7.8 8.0 8.3 8.3 8.3 8.5 8.2 8.1 7.9 7.2 8.4 8.6 8.4 7.3 6.9 7.0 7.1 6.6 6.7 7.2 6.9 6.7 6.2 5.7 5.9 6.4 6.2 6.1 6.2 5.6 5.7 5.8 5.5 5.3 5.3 5.3 5.1 4.9 4.9 4.4
6.4 6.9 7.1 7.3 7.7 7.9 7.9 8.1 8.1 8.2 8.2 8.1 7.9 7.5 8.5 8.5 8.0 7.2 6.5 6.4 7.0 7.0 6.8 6.6 6.7 6.8 6.4 5.8 6.0 6.3 6.3 6.6 6.6 5.9 5.4 5.8 5.7 5.7 5.3 5.2 4.9 5.0 4.9 4.7
6.1 6.2 6.6 6.9 7.4 7.4 7.4 7.8 7.6 7.7 7.9 7.6 7.6 8.0 8.1 8.2 8.2 7.6 6.7 6.7 6.9 6.9 6.5 6.5 6.6 6.8 6.5 6.0 6.2 6.3 6.4 6.6 6.1 6.0 5.7 5.6 5.7 5.8 6.0 5.8 5.6 5.4 5.4 4.8
5.9 6.1 6.2 6.4 6.6 6.6 6.8 7.1 7.5 7.2 7.3 7.6 7.4 7.8 7.5 7.5 7.4 7.1 6.7 7.0 6.9 6.8 6.8 6.6 6.8 6.6 6.3 5.9 5.8 6.3 6.4 6.3 6.5 6.2 5.9 6.0 5.9 5.6 5.9 5.7 5.7 5.6 5.5 5.3
5.7 5.4 5.8 5.8 6.0 6.2 6.1 6.4 6.6 6.9 7.1 7.1 7.3 7.3 6.4 6.5 6.6 6.4 6.6 6.9 7.0 7.1 7.1 6.8 6.8 6.5 6.2 6.2 6.3 6.2 6.2 6.3 6.5 6.2 6.1 5.8 5.6 5.7 5.8 5.9 5.7 5.8 5.7 5.4
5.3 5.5 5.3 5.0 5.6 5.9 6.0 6.2 6.6 6.4 6.0 6.7 6.5 6.1 6.0 5.9 6.2 6.5 6.8 6.7 6.9 7.2 6.7 6.5 6.6 6.5 6.5 6.4 6.2 6.1 6.4 6.0 6.0 6.2 6.3 6.1 5.9 6.1 6.0 6.0 5.9 5.8 5.7 5.5
5.1 4.9 5.1 5.2 5.5 5.1 5.7 5.7 5.9 5.9 5.3 5.4 5.4 5.7 5.8 5.8 5.9 6.1 6.5 6.5 6.6 6.7 6.6 6.5 6.5 6.5 6.6 6.5 6.5 5.8 6.3 6.0 6.0 6.3 6.0 5.8 5.8 6.0 6.1 6.4 5.9 5.9 5.9 5.7
6.4 5.2 5.4 5.9 6.0 6.6 6.4 5.7 5.1 4.9 4.7 4.9 4.9 5.6 5.8 6.1 6.1 5.9 6.4 6.1 6.3 6.4 6.5 6.5 6.5 6.6 6.6 6.5 6.4 6.6 6.3 5.8 5.7 5.6 5.8 5.9 5.8 5.5 5.5 5.8 5.8 5.8 5.7 5.9
7.1 6.5 6.4 6.5 6.5 7.0 5.0 5.3 5.7 6.6 5.2 4.8 4.6 4.9 5.5 5.9 6.0 6.0 5.8 5.9 5.9 6.1 6.3 6.6 6.5 6.5 6.6 6.6 6.4 6.2 6.2 6.2 6.1 5.9 5.8 5.7 5.5 5.7 5.9 6.0 6.1 6.1 5.9 5.8
7.7 7.4 6.8 7.0 7.3 6.5 5.8 5.6 6.0 6.8 5.3 4.9 4.4 4.3 4.7 5.0 4.7 5.2 5.4 5.5 5.8 5.8 6.3 6.4 6.6 6.7 6.5 6.4 6.4 6.4 6.1 6.2 6.2 6.1 6.0 6.1 6.1 6.2 6.2 6.1 6.0 6.0 6.1 6.0
8.0 7.6 7.1 6.8 6.6 7.4 6.7 6.3 6.1 5.6 5.4 4.9 4.9 4.3 4.3 4.2 4.2 4.6 5.2 5.2 5.1 5.6 5.8 6.2 6.6 6.6 6.6 6.3 6.3 6.4 6.3 6.5 6.4 6.3 6.1 6.1 6.1 6.2 6.3 6.3 6.2 6.0 5.9 5.7
8.3 8.0 7.7 7.4 7.2 6.8 6.5 6.3 6.2 5.7 5.3 5.0 5.1 4.8 4.4 4.3 4.1 4.1 4.7 5.4 5.3 5.4 5.4 5.9 6.5 6.7 6.8 6.4 6.3 6.2 6.3 6.5 6.4 6.4 6.3 6.3 6.3 6.3 6.3 6.2 6.0 5.9 5.8 5.7
8.1 8.1 8.0 7.8 7.5 7.4 6.8 6.7 6.4 6.2 5.8 5.3 5.2 5.2 5.1 5.0 4.9 4.9 4.7 5.2 5.6 5.4 5.6 5.7 5.9 6.4 6.8 6.6 6.4 6.5 6.5 6.5 6.7 6.5 6.4 6.5 6.5 6.5 6.5 6.2 5.8 5.5 5.3 5.2
8.1 8.1 8.1 7.9 7.5 7.5 7.4 6.8 6.6 6.9 6.5 6.2 5.6 5.4 5.3 5.4 5.5 5.5 5.7 5.7 5.6 5.6 5.3 5.7 5.8 5.8 6.3 6.4 6.6 6.6 6.6 6.7 6.6 6.6 6.4 6.3 6.3 6.3 6.2 5.9 5.6 5.4 5.2 5.1
7.7 7.5 7.6 7.9 7.9 7.5 7.1 6.7 6.3 6.3 6.3 6.3 6.2 6.3 5.8 5.6 5.8 5.7 5.9 6.4 6.6 6.4 5.8 6.1 6.2 6.3 6.3 6.5 6.7 6.8 6.7 6.8 6.9 6.7 6.6 6.4 6.2 6.1 6.0 5.8 5.5 5.3 5.1 5.1
Wind_Speed
1 2 7 9 8 4 2 3 7 4 5 5 7 12 18 14 7 8 8 7 6 6 5 6 6 6 5 5 3 5 6 6 5 2 2 2 3 3 3 3 6 6 11 3
3 7 7 4 5 6 5 4 8 7 4 6 7 11 13 8 6 7 8 7 5 4 6 6 7 5 4 4 4 6 6 6 5 4 3 2 2 2 3 3 4 5 6 12
6 5 4 3 3 3 4 6 5 8 3 4 3 7 6 3 3 4 5 3 2 4 7 7 7 7 5 6 4 5 7 7 7 8 5 3 1 2 1 3 3 5 7 8
6 5 6 6 9 8 6 7 8 4 2 4 1 5 7 4 5 5 6 4 6 7 6 5 6 8 6 7 6 5 6 8 10 11 8 9 7 5 4 4 3 3 5 8
8 3 5 6 8 8 9 4 6 4 4 2 2 2 7 0 6 8 8 7 7 7 6 6 7 8 7 6 6 6 6 8 8 9 11 9 7 6 4 4 7 6 2 9
9 4 4 8 5 7 2 2 2 3 4 1 7 7 5 4 6 4 3 6 8 6 4 4 6 6 5 5 5 6 6 10 7 7 11 12 10 7 7 7 4 5 6 6
4 5 4 3 1 1 2 4 3 3 1 6 2 3 8 6 5 7 8 9 8 5 4 5 6 4 5 4 7 7 9 8 6 6 7 7 9 9 10 9 6 6 4 4
2 10 5 3 6 5 6 6 5 6 3 4 1 5 6 6 4 7 5 5 6 7 2 5 6 5 5 5 5 7 6 9 5 4 3 5 8 6 5 6 5 3 4 4
4 7 2 4 3 5 3 5 2 2 2 2 4 7 5 3 1 3 1 4 8 8 4 3 6 5 6 4 4 6 7 5 5 7 5 5 6 7 6 7 7 5 4 4
4 5 5 3 1 4 5 2 1 1 3 6 5 4 5 5 6 1 4 7 9 7 4 1 3 5 5 5 2 3 4 5 5 8 7 7 9 7 8 7 7 8 6 5
2 4 7 2 6 7 1 3 4 2 4 4 3 5 5 8 7 5 3 8 9 8 4 1 1 3 4 4 4 3 3 4 3 5 7 7 10 10 10 10 9 8 8 6
2 3 6 10 6 4 4 7 7 4 4 3 2 6 3 3 5 4 7 8 9 5 4 3 1 2 3 4 4 3 4 4 3 4 6 8 9 11 12 10 10 11 11 10
6 3 4 8 4 2 3 3 4 1 3 5 5 6 2 6 4 8 8 9 8 5 2 2 1 1 3 4 4 3 3 3 3 4 4 4 7 7 7 10 11 10 11 13
6 4 6 10 4 3 7 6 7 3 2 3 9 7 8 14 12 10 12 12 10 5 4 2 2 0 2 4 4 4 3 2 1 3 2 3 4 6 6 8 9 9 9 10
6 6 6 8 7 5 12 13 11 9 7 8 5 2 9 8 7 9 9 13 12 10 7 3 2 2 2 3 4 5 4 3 2 2 2 3 3 5 5 6 7 7 7 6
7 6 11 15 7 10 16 14 13 12 11 13 8 4 8 5 7 16 16 17 16 12 8 2 3 4 4 4 4 5 6 6 5 7 5 5 5 4 5 4 7 8 7 6
9 4 3 13 4 8 9 7 6 11 13 3 4 4 8 5 12 15 16 17 18 18 8 6 5 4 3 4 4 6 6 6 6 8 6 8 6 6 5 5 5 7 9 8
12 9 7 6 3 7 7 11 15 16 13 14 10 10 10 9 3 15 17 18 20 21 18 11 6 4 5 3 5 6 5 6 7 7 7 7 7 8 7 7 6 6 5 6
10 11 6 4 8 4 4 10 8 6 10 13 9 14 16 19 5 11 18 19 17 17 16 12 6 5 4 5 5 7 6 6 6 6 5 5 6 7 7 8 7 6 7 7
12 5 6 1 5 6 6 9 16 8 4 14 15 16 16 15 6 7 19 18 18 18 15 14 10 6 6 5 5 7 6 6 5 5 4 5 6 7 7 7 7 6 8 9
6 4 4 6 4 5 10 10 7 1 4 13 14 15 14 10 6 13 15 15 14 14 15 15 10 6 6 4 5 6 5 5 4 5 5 6 6 8 8 8 7 7 8 9
4 4 3 3 4 2 18 6 5 5 11 14 15 14 14 13 13 12 12 14 15 14 15 14 11 6 6 4 4 5 5 3 4 5 6 6 6 5 5 8 7 7 8 9
1 4 3 2 2 8 11 11 9 11 11 13 13 14 12 14 15 15 14 14 13 15 12 12 11 6 5 4 1 5 4 4 5 6 6 7 7 6 6 7 7 7 7 7
6 10 3 7 7 15 5 9 12 13 9 13 14 14 16 17 17 18 15 14 12 13 13 12 12 8 4 3 3 2 4 6 7 6 6 6 6 6 6 5 5 5 5 6
3 6 7 4 6 13 5 19 19 20 19 16 14 15 17 17 18 18 16 15 13 13 12 10 9 10 5 2 3 3 3 4 6 6 6 6 6 7 8 8 6 6 6 5
5 4 4 4 10 8 11 13 15 15 18 18 19 18 15 15 18 18 17 16 15 14 13 10 9 8 5 2 2 5 5 4 5 5 4 4 5 5 6 8 9 19 19 21
Wind_Direction
262 50 222 214 205 209 227 222 245 249 232 208 226 252 269 278 263 262 236 257 286 300 284 303 323 330 320 303 204 171 158 185 161 163 190 202 211 212 225 232 169 166 128 105
17 243 242 235 215 223 234 262 265 280 241 185 277 273 284 251 240 200 215 243 266 300 307 306 318 329 276 272 198 168 185 187 189 187 192 177 175 209 250 225 177 172 118 105
185 234 58 183 227 218 225 216 249 230 327 271 301 291 311 305 251 193 190 192 260 300 300 306 321 312 288 261 227 207 197 194 199 196 196 160 164 205 176 238 212 222 139 90
233 265 220 227 253 177 257 213 230 227 67 245 68 278 292 262 234 206 210 250 291 291 301 287 300 300 289 238 232 211 200 219 221 198 204 201 205 197 185 214 260 210 182 127
251 246 222 221 227 166 235 169 198 193 192 41 280 73 264 170 237 227 226 247 266 277 297 286 287 287 301 218 206 215 218 258 255 224 207 204 202 207 169 141 201 170 152 145
246 293 213 222 229 199 113 274 67 58 114 267 222 177 272 211 209 195 205 241 256 288 292 267 278 292 290 220 207 211 216 255 275 190 193 199 172 172 165 156 161 157 151 151
311 231 249 185 253 230 160 84 300 321 344 234 146 145 245 269 241 175 183 239 261 280 280 279 296 282 296 268 225 224 226 246 240 230 199 181 165 168 181 163 151 139 130 133
210 310 187 176 199 201 189 183 179 236 211 256 54 237 252 286 168 135 196 256 280 297 306 283 305 289 286 291 234 219 229 239 234 197 203 175 172 169 162 155 146 123 106 130
191 264 244 206 238 155 197 191 217 166 90 49 246 290 303 20 87 184 26 305 285 294 314 301 331 318 298 312 252 218 235 239 198 187 182 173 154 166 159 143 139 145 112 101
261 277 216 244 240 244 193 190 105 347 207 247 276 267 243 241 227 281 318 316 300 285 312 9 341 328 314 325 5 234 230 238 207 191 181 176 157 163 170 170 153 148 136 113
290 184 277 110 198 207 169 242 225 184 159 210 246 254 221 205 188 168 326 297 286 274 262 158 317 312 319 330 333 276 245 244 216 172 178 160 161 178 176 184 175 157 141 148
344 257 247 234 248 251 218 219 185 182 219 242 216 256 312 280 153 58 303 289 288 251 250 151 193 319 342 332 329 316 244 238 225 156 190 178 168 166 174 175 169 165 165 165
334 299 314 315 353 308 237 241 220 181 27 202 225 258 76 53 34 339 330 324 309 271 281 162 156 8 342 335 327 319 318 267 206 166 177 170 180 167 159 165 167 164 172 178
301 239 212 256 260 20 292 299 328 294 208 246 247 277 358 357 7 7 357 349 330 275 272 200 125 28 6 337 335 334 346 343 198 192 153 142 145 138 146 143 150 166 157 168
2 263 220 265 279 271 274 285 286 229 235 228 248 331 25 15 2 342 347 1 359 340 294 273 105 32 38 357 350 346 0 3 89 39 106 115 123 101 127 142 132 122 131 140
321 274 328 292 277 270 276 273 261 257 251 251 253 104 359 0 32 26 14 3 358 329 290 305 55 58 37 16 11 19 31 25 32 65 45 69 84 81 95 113 144 146 142 139
251 272 292 270 332 341 298 326 289 72 36 10 74 38 354 5 41 28 13 9 5 8 4 2 23 31 42 34 43 42 44 40 37 62 51 60 64 65 60 93 109 151 167 144
240 214 221 272 231 236 137 42 63 77 45 28 34 30 2 331 141 39 21 12 8 4 1 353 349 9 29 26 61 75 57 56 48 58 55 61 64 79 69 62 68 69 85 115
252 231 245 219 203 262 55 358 340 318 47 11 30 17 10 346 183 19 11 6 359 354 352 338 331 347 38 44 50 70 57 64 58 62 60 61 68 67 68 70 60 59 79 70
24 209 224 224 225 222 355 318 325 164 70 20 23 19 15 13 27 346 347 345 347 344 343 341 344 359 33 26 56 68 62 61 60 70 84 87 82 85 78 73 66 71 81 83
355 12 311 287 287 114 338 346 322 25 36 354 3 351 351 351 318 309 323 333 337 333 333 339 335 13 359 28 70 70 63 55 45 56 65 65 61 79 88 89 79 83 88 85
18 352 12 351 303 245 359 33 53 350 343 340 339 335 327 322 319 323 324 326 326 332 332 334 336 337 351 12 86 94 80 71 64 63 66 64 57 70 78 87 79 81 92 93
3 1 307 220 20 26 52 67 44 2 328 332 326 324 331 321 317 317 316 317 322 322 327 325 329 314 344 352 89 129 125 107 89 74 70 64 57 53 71 91 96 88 85 88
14 23 17 339 28 344 91 26 357 351 342 328 317 309 307 301 301 299 297 298 301 306 319 322 318 300 306 354 23 87 124 120 105 98 86 78 83 71 52 58 56 87 95 98
351 338 324 285 28 325 201 354 346 329 328 322 310 303 296 295 291 291 290 289 290 290 294 306 325 313 260 214 94 68 91 96 107 107 95 86 85 86 80 68 61 71 60 87
354 357 348 286 341 310 288 318 315 318 314 312 311 304 291 283 282 282 280 279 279 281 288 286 292 308 256 141 32 107 80 77 94 95 92 97 97 91 93 97 85 70 78 82